Rock Hill, SC

9:55 AM EST on February 19, 2017 (GMT -0500)
Rock Hill-York County-Bryant

Weather History for KUZA - March, 2013

Change the Weather History Date:

Friday, March 29, 2013

  Actual Average Record
Temperature  
Mean Temperature 44 °F -  
Max Temperature 63 °F 69 °F 84 °F (1985)
Min Temperature 27 °F 46 °F 21 °F (2015)
Degree Days  
Heating Degree Days 21    
Moisture  
Dew Point 26 °F    
Average Humidity 50    
Maximum Humidity 89    
Minimum Humidity 22    
Precipitation  
Precipitation 0.00 in - - ()
Sea Level Pressure  
Sea Level Pressure 30.29 in    
Wind  
Wind Speed 2 mph (WNW)    
Max Wind Speed 10 mph    
Max Gust Speed 21 mph    
Visibility 10 miles    
Events Rain    
Averages and records for this station are not official NWS values.
T = Trace of Precipitation, MM = Missing Value Source: NWS Daily Summary

Daily Weather History Graph

Daily Weather History Graph

Search for Another Location

Airport or City:

Trip Planner

Search our weather history database for the weather conditions in past years. The results will help you decide how hot, cold, wet, or windy it might be!

Date:

Astronomy

Mar. 29, 2013 Rise Set
Actual Time 7:14 AM EDT 7:43 PM EDT
Civil Twilight 6:49 AM EDT 8:08 PM EDT
Nautical Twilight 6:19 AM EDT 8:38 PM EDT
Astronomical Twilight 5:49 AM EDT 9:09 PM EDT
Moon 10:33 PM EDT (3/29) 8:29 AM EDT (3/29)
Length of Visible Light 13h 19m
Length of Day
12h 28m
Waning Gibbous, 93% of the Moon is Illuminated
Mar 29
Waning Gibbous
Apr 3
Last Quarter
Apr 10
New
Apr 18
First Quarter
Apr 25
Full

Hourly Weather History & Observations

Time (EDT) Temp. Dew Point Humidity Pressure Visibility Wind Dir Wind Speed Gust Speed Precip Events Conditions
12:54 AM 37.9 °F 26.1 °F 62% 30.31 in 10.0 mi Calm Calm - N/A   Clear
1:54 AM 32.0 °F 25.0 °F 75% 30.32 in 10.0 mi Calm Calm - N/A   Clear
2:54 AM 34.0 °F 26.1 °F 73% 30.32 in 10.0 mi Calm Calm - N/A   Clear
3:54 AM 30.0 °F 25.0 °F 82% 30.32 in 10.0 mi Calm Calm - N/A   Clear
4:54 AM 28.9 °F 25.0 °F 85% 30.32 in 10.0 mi Calm Calm - N/A   Clear
5:54 AM 27.0 °F 24.1 °F 89% 30.33 in 10.0 mi Calm Calm - N/A   Clear
6:54 AM 28.0 °F 25.0 °F 88% 30.35 in 10.0 mi Calm Calm - N/A   Clear
7:54 AM 28.9 °F 26.1 °F 89% 30.37 in 10.0 mi Calm Calm - N/A   Clear
8:54 AM 41.0 °F 34.0 °F 76% 30.36 in 10.0 mi Calm Calm - N/A   Clear
9:54 AM 48.9 °F 25.0 °F 39% 30.36 in 10.0 mi SW 3.5 mph - N/A   Clear
10:54 AM 51.1 °F 24.1 °F 35% 30.36 in 10.0 mi Calm Calm - N/A   Clear
11:54 AM 53.1 °F 23.0 °F 31% 30.34 in 10.0 mi Calm Calm - N/A   Clear
12:54 PM 57.0 °F 23.0 °F 27% 30.32 in 10.0 mi NNW 8.1 mph - 0.00 in   Clear
1:54 PM 60.1 °F 24.1 °F 25% 30.28 in 10.0 mi North - - N/A   Clear
2:54 PM 61.0 °F 21.9 °F 22% 30.25 in 10.0 mi Variable 3.5 mph - N/A   Clear
3:54 PM 59.0 °F 21.9 °F 24% 30.23 in 10.0 mi NW 6.9 mph 20.7 mph N/A   Clear
4:54 PM 61.0 °F 23.0 °F 23% 30.22 in 10.0 mi West 5.8 mph - N/A   Mostly Cloudy
5:54 PM 61.0 °F 24.1 °F 24% 30.22 in 10.0 mi SW 6.9 mph - N/A   Overcast
6:54 PM 60.1 °F 24.1 °F 25% 30.22 in 10.0 mi Variable 6.9 mph - N/A   Overcast
7:54 PM 57.9 °F 26.1 °F 30% 30.23 in 10.0 mi WSW 10.4 mph - N/A   Overcast
8:54 PM 55.9 °F 26.1 °F 32% 30.23 in 10.0 mi West 5.8 mph - N/A   Overcast
9:54 PM 55.0 °F 30.0 °F 38% 30.24 in 10.0 mi West 6.9 mph - N/A   Overcast
10:54 PM 54.0 °F 33.1 °F 45% 30.24 in 10.0 mi NW 5.8 mph - N/A   Overcast
11:54 PM 52.0 °F 37.9 °F 59% 30.24 in 10.0 mi NW 4.6 mph - 0.00 in Rain Light Rain